When you browse on this site, cookies collect data to enhance your experience and personalize the content and advertising you see.
Visit our Privacy Policy to learn more. By continuing to use the site, you agree to this use of cookies and data.
  • In Switzerland
  • List of Countries
  • For 7 days
  • Water Temperature
  • Satellite Maps
  • Weather Map
  • Weather Widgets
  • user-avatar
    Login

    Hourly Weather Oberursel

    Today, 26 May, Sunday

    Time Temperature Precipitation Wind Pressure Humidity
    00:00 +13°C° 0 mm 1 mps 744 mmHg 81%
    01:00 +12°C° 0 mm 1 mps 744 mmHg 84%
    02:00 +12°C° 0 mm 1 mps 744 mmHg 85%
    03:00 +11°C° 0 mm 1 mps 744 mmHg 86%
    04:00 +10°C° 0 mm 0 mps 744 mmHg 87%
    05:00 +12°C° 0 mm 1 mps 744 mmHg 83%
    06:00 +13°C° 0 mm 1 mps 744 mmHg 79%
    07:00 +15°C° 0 mm 1 mps 744 mmHg 75%
    08:00 +16°C° 0 mm 1 mps 744 mmHg 68%
    09:00 +18°C° 0 mm 2 mps 744 mmHg 61%
    10:00 +19°C° 0 mm 3 mps 744 mmHg 55%
    11:00 +20°C° 0 mm 3 mps 744 mmHg 51%
    12:00 +21°C° 0 mm 3 mps 743 mmHg 48%
    13:00 +22°C° 0 mm 3 mps 743 mmHg 45%
    14:00 +22°C° 0 mm 3 mps 743 mmHg 45%
    15:00 +22°C° 0 mm 3 mps 742 mmHg 44%
    16:00 +24°C° 0 mm 3 mps 742 mmHg 44%
    17:00 +22°C° 0 mm 3 mps 742 mmHg 53%
    18:00 +20°C° 0 mm 3 mps 741 mmHg 61%
    19:00 +19°C° 0 mm 3 mps 741 mmHg 70%
    20:00 +18°C° 0 mm 3 mps 741 mmHg 72%
    21:00 +18°C° 0 mm 3 mps 741 mmHg 75%
    22:00 +17°C° 0 mm 3 mps 741 mmHg 78%
    23:00 +16°C° 0 mm 3 mps 741 mmHg 81%

    Tomorrow, 27 May, Monday

    Time Temperature Precipitation Wind Pressure Humidity
    00:00 +16°C° 0 mm 3 mps 741 mmHg 84%
    01:00 +14°C° 0 mm 3 mps 741 mmHg 86%
    02:00 +14°C° 0 mm 3 mps 740 mmHg 88%
    03:00 +14°C° 0 mm 2 mps 740 mmHg 89%
    04:00 +14°C° 0 mm 2 mps 739 mmHg 91%
    05:00 +13°C° 0.1 mm 3 mps 740 mmHg 90%
    06:00 +13°C° 0.1 mm 3 mps 740 mmHg 89%
    07:00 +14°C° 0.1 mm 3 mps 740 mmHg 88%
    08:00 +15°C° 0.2 mm 2 mps 740 mmHg 88%
    09:00 +15°C° 0.2 mm 2 mps 740 mmHg 88%
    10:00 +16°C° 0.2 mm 2 mps 740 mmHg 89%
    11:00 +16°C° 0.2 mm 2 mps 740 mmHg 88%
    12:00 +16°C° 0.2 mm 1 mps 740 mmHg 88%
    13:00 +16°C° 0.2 mm 1 mps 740 mmHg 88%
    14:00 +16°C° 0.1 mm 1 mps 739 mmHg 85%
    15:00 +18°C° 0.1 mm 1 mps 739 mmHg 82%
    16:00 +18°C° 0.1 mm 1 mps 739 mmHg 79%
    17:00 +18°C° 0.2 mm 1 mps 739 mmHg 79%
    18:00 +18°C° 0.2 mm 1 mps 739 mmHg 80%
    19:00 +16°C° 0.2 mm 1 mps 739 mmHg 81%
    20:00 +15°C° 0 mm 1 mps 739 mmHg 81%
    21:00 +14°C° 0 mm 1 mps 739 mmHg 81%
    22:00 +14°C° 0 mm 1 mps 739 mmHg 81%
    23:00 +13°C° 0 mm 1 mps 739 mmHg 81%

    Day after tomorrow, 28 May, Tuesday

    Time Temperature Precipitation Wind Pressure Humidity
    00:00 +13°C° 0 mm 1 mps 739 mmHg 81%
    01:00 +12°C° 0 mm 1 mps 739 mmHg 81%
    02:00 +12°C° 0 mm 1 mps 739 mmHg 82%
    03:00 +11°C° 0 mm 1 mps 738 mmHg 83%
    04:00 +11°C° 0 mm 1 mps 738 mmHg 83%
    05:00 +11°C° 0 mm 1 mps 738 mmHg 80%
    06:00 +12°C° 0 mm 1 mps 738 mmHg 77%
    07:00 +13°C° 0 mm 1 mps 738 mmHg 74%
    08:00 +14°C° 0 mm 1 mps 738 mmHg 68%
    09:00 +15°C° 0 mm 2 mps 738 mmHg 62%
    10:00 +16°C° 0 mm 2 mps 738 mmHg 57%
    11:00 +17°C° 0 mm 2 mps 738 mmHg 53%
    12:00 +18°C° 0 mm 2 mps 737 mmHg 49%
    13:00 +19°C° 0 mm 2 mps 737 mmHg 45%
    14:00 +19°C° 0.4 mm 3 mps 737 mmHg 51%
    15:00 +18°C° 0.4 mm 3 mps 737 mmHg 56%
    16:00 +18°C° 0.4 mm 3 mps 737 mmHg 61%
    17:00 +17°C° 0.3 mm 3 mps 737 mmHg 64%
    18:00 +16°C° 0.3 mm 3 mps 737 mmHg 68%
    19:00 +16°C° 0.3 mm 2 mps 737 mmHg 72%
    20:00 +14°C° 0 mm 2 mps 738 mmHg 75%
    21:00 +13°C° 0 mm 1 mps 738 mmHg 78%
    22:00 +12°C° 0 mm 1 mps 739 mmHg 80%
    23:00 +12°C° 0 mm 1 mps 739 mmHg 82%

    29 May, Wednesday

    Time Temperature Precipitation Wind Pressure Humidity
    00:00 +11°C° 0 mm 1 mps 739 mmHg 84%
    01:00 +10°C° 0 mm 1 mps 740 mmHg 85%
    02:00 +10°C° 0 mm 1 mps 740 mmHg 87%
    03:00 +10°C° 0 mm 1 mps 740 mmHg 88%
    04:00 +8°C° 0 mm 2 mps 740 mmHg 89%
    05:00 +9°C° 0 mm 2 mps 741 mmHg 87%
    06:00 +10°C° 0 mm 2 mps 742 mmHg 85%
    07:00 +11°C° 0 mm 3 mps 742 mmHg 83%
    08:00 +12°C° 0.1 mm 3 mps 743 mmHg 82%
    09:00 +12°C° 0.1 mm 3 mps 743 mmHg 81%
    10:00 +13°C° 0.1 mm 3 mps 743 mmHg 79%
    11:00 +14°C° 0.1 mm 3 mps 744 mmHg 73%
    12:00 +16°C° 0.1 mm 3 mps 744 mmHg 66%
    13:00 +17°C° 0.1 mm 3 mps 744 mmHg 60%
    14:00 +17°C° 0.1 mm 3 mps 744 mmHg 58%
    15:00 +17°C° 0.1 mm 4 mps 745 mmHg 57%
    16:00 +18°C° 0.1 mm 4 mps 745 mmHg 55%
    17:00 +17°C° 0.1 mm 3 mps 745 mmHg 59%
    18:00 +16°C° 0.1 mm 3 mps 745 mmHg 63%
    19:00 +15°C° 0.1 mm 2 mps 746 mmHg 67%
    20:00 +14°C° 0 mm 2 mps 746 mmHg 72%
    21:00 +13°C° 0 mm 1 mps 747 mmHg 76%
    22:00 +11°C° 0 mm 1 mps 747 mmHg 81%
    23:00 +10°C° 0 mm 1 mps 747 mmHg 82%

    30 May, Thursday

    Time Temperature Precipitation Wind Pressure Humidity
    00:00 +10°C° 0 mm 1 mps 748 mmHg 84%
    01:00 +8°C° 0 mm 0 mps 748 mmHg 85%
    02:00 +8°C° 0 mm 0 mps 748 mmHg 85%
    03:00 +8°C° 0 mm 0 mps 748 mmHg 86%
    04:00 +8°C° 0 mm 0 mps 748 mmHg 86%
    05:00 +9°C° 0 mm 0 mps 748 mmHg 83%
    06:00 +10°C° 0 mm 0 mps 748 mmHg 79%
    07:00 +12°C° 0 mm 1 mps 749 mmHg 76%
    08:00 +14°C° 0.2 mm 1 mps 749 mmHg 71%
    09:00 +15°C° 0.2 mm 2 mps 749 mmHg 65%
    10:00 +17°C° 0.2 mm 2 mps 749 mmHg 60%
    11:00 +17°C° 0.1 mm 3 mps 749 mmHg 56%
    12:00 +18°C° 0.1 mm 3 mps 749 mmHg 52%
    13:00 +19°C° 0.1 mm 3 mps 748 mmHg 48%
    14:00 +19°C° 0 mm 3 mps 748 mmHg 49%
    15:00 +19°C° 0 mm 3 mps 748 mmHg 51%
    16:00 +19°C° 0 mm 3 mps 748 mmHg 52%
    17:00 +18°C° 0.1 mm 3 mps 749 mmHg 58%
    18:00 +17°C° 0.1 mm 3 mps 749 mmHg 63%
    19:00 +17°C° 0.1 mm 3 mps 749 mmHg 69%
    20:00 +16°C° 0 mm 2 mps 749 mmHg 73%
    21:00 +15°C° 0 mm 2 mps 750 mmHg 77%
    22:00 +14°C° 0 mm 2 mps 750 mmHg 81%
    23:00 +14°C° 0 mm 2 mps 750 mmHg 83%

    31 May, Friday

    Time Temperature Precipitation Wind Pressure Humidity
    00:00 +13°C° 0 mm 2 mps 750 mmHg 85%
    01:00 +13°C° 0 mm 2 mps 750 mmHg 87%
    02:00 +13°C° 0.2 mm 2 mps 750 mmHg 88%
    03:00 +13°C° 0.2 mm 1 mps 750 mmHg 90%
    04:00 +13°C° 0.2 mm 1 mps 750 mmHg 91%
    05:00 +13°C° 0.3 mm 2 mps 750 mmHg 91%
    06:00 +13°C° 0.3 mm 2 mps 751 mmHg 91%
    07:00 +14°C° 0.3 mm 2 mps 751 mmHg 91%
    08:00 +14°C° 0.4 mm 2 mps 751 mmHg 90%
    09:00 +15°C° 0.4 mm 2 mps 751 mmHg 88%
    10:00 +16°C° 0.4 mm 2 mps 751 mmHg 87%
    11:00 +17°C° 0.2 mm 3 mps 751 mmHg 83%
    12:00 +18°C° 0.2 mm 3 mps 751 mmHg 79%
    13:00 +19°C° 0.2 mm 3 mps 751 mmHg 75%
    14:00 +20°C° 0.3 mm 3 mps 751 mmHg 73%
    15:00 +20°C° 0.3 mm 3 mps 751 mmHg 71%
    16:00 +21°C° 0.3 mm 3 mps 751 mmHg 70%
    17:00 +20°C° 0.1 mm 3 mps 751 mmHg 72%
    18:00 +20°C° 0.1 mm 3 mps 751 mmHg 75%
    19:00 +20°C° 0.1 mm 2 mps 751 mmHg 77%
    20:00 +18°C° 0 mm 2 mps 751 mmHg 80%
    21:00 +17°C° 0 mm 2 mps 752 mmHg 83%
    22:00 +16°C° 0 mm 2 mps 752 mmHg 85%
    23:00 +16°C° 0 mm 2 mps 752 mmHg 87%
    Show more